Simultaneous Nadir Overpasses (SNOs) Predictions

Prediction of SNOs between GOES-15 and METOP-C Satellite Orbit:

Table of predicted SNOs for the next 14.0 days since TLE Epoch: 10/3/2025
Index Date Time (GOES-15) GOES-15 Lat,Lon METOP-C Lat,Lon Distance(km) Time Diff (sec)
1 10/03/2025 17:08:23 -0.56, 61.42 0.31, 65.39 451.72 80
2 10/05/2025 05:29:54 0.59, 61.30 0.68, 60.82 54.55 80
3 10/07/2025 17:28:13 -0.59, 61.43 -0.61, 61.23 22.31 80
4 10/10/2025 05:23:43 0.60, 61.35 0.53, 61.68 38.25 80
5 10/11/2025 17:45:21 -0.63, 61.48 -1.60, 57.10 498.50 80
6 10/12/2025 17:22:00 -0.62, 61.50 -0.49, 62.10 68.98 80
7 10/14/2025 05:40:51 0.64, 61.41 1.49, 57.54 440.23 80
8 10/15/2025 05:22:50 0.63, 61.42 0.37, 62.54 127.89 80
9 10/16/2025 17:41:47 -0.65, 61.55 -1.48, 57.97 408.62 80
